{"data":{"norad_id":58409,"epoch":"2026-09-20T08:36:34.189056Z","epoch_age_seconds":158906,"freshness":"FRESH","line1":"1 58409U 23180H   26263.35872904  .00000329  00000+0  21502-4 0  9994","line2":"2 58409  43.0035 248.0807 0001548 266.9007  93.1668 15.27574831159102","mean_motion":15.27574831,"eccentricity":0.0001548,"inclination_deg":43.0035,"raan_deg":248.0807,"arg_perigee_deg":266.9007,"mean_anomaly_deg":93.1668,"bstar":2.1502e-5,"rev_number":15910,"period_min":94.267067693,"perigee_km":482.00245992519,"apogee_km":484.12668793248,"semimajor_km":6861.2015739288,"source":"CELESTRAK","updated_at":"2026-09-21T09:00:33.870937Z"}}